Location: Home
(42.5358°N, 72.7383°W)
Time: 16:39:44
(UTC-05:00)

A-11 Canister half - Pass Details

Date: 04 December 2021
Orbit: 1516 x 1684 km, 47.2° (Epoch: 18 January)

Event Time Altitude Azimuth Distance (km) Brightness Sun altitude
Rises 14:25:33 0° 294° (WNW) 4,921 11.9 14.9°
Reaches altitude 10° 14:29:19 10° 283° (WNW) 3,941 11.6 14.5°
Maximum altitude 14:37:15 27° 231° (SW) 2,818 12.3 13.5°
Drops below altitude 10° 14:45:11 10° 179° (S) 3,922 12.0 12.5°
Sets 14:48:57 0° 167° (SSE) 4,892 12.1 12.0°
